Temp_Advection
nan nan nan nan nan nan nan nan nan nan nan nan nan nan nan nan nan nan nan nan nan nan nan nan nan nan nan nan nan nan nan nan nan nan nan nan nan nan nan nan nan nan nan nan nan
nan -0 -0 0 0 -0 -0 -0 -0 0 0 -0 -1 -1 -0 -1 -2 -1 0 0 0 -0 -0 0 -0 -0 -0 -1 1 0 -0 -1 -1 -0 0 0 0 -1 -1 -1 0 -0 -0 -0 nan
nan -0 -0 -0 -0 -0 -0 -0 -0 -0 -0 -0 -0 -1 -1 -1 -2 -0 -0 0 0 -0 0 0 -0 -0 -0 -1 0 1 -0 -1 -1 0 0 -0 0 -2 -0 -0 0 0 -0 -0 nan
nan -1 -0 -0 -0 -0 -0 -0 -0 -0 0 -0 -0 -1 -1 -1 -0 0 -0 -0 0 0 0 -0 -0 0 0 -0 -1 -0 -1 -0 -0 -0 -0 0 -0 -1 0 -0 -0 -0 -0 0 nan
nan -2 -1 -1 -0 -0 -0 -0 -0 0 0 0 -0 -1 -1 -1 -3 -1 0 -0 -0 0 0 0 -0 0 -0 -1 -0 0 -0 -0 -0 -0 -0 -0 -0 -0 -0 -0 -0 -0 -1 -0 nan
nan -2 -3 -2 -1 -1 -0 -0 -0 0 0 0 0 -0 -0 -2 -1 0 -0 -0 0 0 0 -0 -1 -1 -0 0 -0 -1 -0 -1 -0 -0 -0 0 -0 0 -0 -0 -0 -0 -0 -0 nan
nan -1 -2 -4 -3 -2 -1 -1 -0 0 0 0 0 0 -2 -7 -1 0 0 -0 -0 -0 -0 -0 -0 -1 0 -0 -0 -0 -0 -1 -0 -0 -0 0 0 0 -0 0 -0 -1 -0 -0 nan
nan 1 -0 -1 -4 -4 -2 -1 -0 0 0 0 1 0 -3 -3 -0 -0 -0 0 0 -0 -0 -0 -0 -0 -0 -0 -0 -0 -0 0 -0 -0 0 0 0 0 -0 -0 -0 -0 -1 -0 nan
nan 1 1 1 -2 -4 -4 -2 -0 0 0 1 1 0 -2 -1 -1 -0 0 -0 -0 -0 -1 -1 -0 0 0 0 -0 0 -0 -0 -0 -0 0 -0 0 -0 -0 -1 -0 -0 -0 -0 nan
nan 0 0 1 0 -2 -4 -3 -1 0 1 1 0 -0 -4 -1 -0 -0 0 0 -0 -0 0 -0 1 0 0 0 -0 -0 -0 -0 0 0 -0 0 0 0 -0 -0 -1 0 -0 -0 nan
nan 0 0 0 1 -0 -3 -2 -0 -0 -0 -0 -0 -1 -1 -0 -1 -0 0 0 0 1 0 1 0 -0 -1 -1 -1 -0 0 0 -0 -0 -0 0 -0 -1 -0 -0 -1 -0 -1 -0 nan
nan 0 -0 -0 0 1 -1 -1 0 -0 -2 -2 -1 -1 -2 -1 -1 -1 -0 -0 1 0 -0 0 -1 -1 -1 -1 -1 0 0 -0 -0 -0 0 0 0 -1 -1 -1 -2 -1 -2 -2 nan
nan 0 -0 -1 -0 0 0 -1 -1 0 -0 -1 -2 -2 -2 -0 -1 -1 -1 0 0 -0 -0 -0 -1 -1 -0 -0 -0 0 0 0 -0 -0 -0 -0 -0 0 -0 -2 -1 -2 -1 -1 nan
nan 0 -0 -1 -0 -0 0 -0 -1 0 -0 -1 -1 -0 -2 -1 -1 -2 -0 0 0 -0 -0 -1 -1 -0 -0 -0 -0 0 -0 -0 0 -0 0 -0 0 -0 0 -1 -1 -1 -1 -1 nan
nan 1 0 -1 -1 -1 -1 -1 -0 0 -0 -2 -1 -0 -0 -0 -0 -0 0 0 -0 -0 -0 -1 -0 -0 -1 -0 -0 -0 -0 -0 -0 0 -0 -0 0 -0 -0 -0 -1 -1 -1 -1 nan
nan 0 0 -1 -1 -0 -1 -2 0 0 -2 -1 0 0 0 -0 -0 -0 0 0 0 1 0 -1 -1 -0 -1 -0 0 -0 0 -0 -0 0 -0 -1 -0 0 -0 -1 -1 -1 -2 -2 nan
nan -0 0 -1 -1 0 -0 -1 -0 -1 -1 -0 -0 -0 0 -0 0 0 0 0 0 0 -0 -1 -1 -1 -0 0 0 0 0 -0 -0 -0 -0 -1 -0 -1 -0 -0 -0 -2 -2 -2 nan
nan -0 -0 -1 -0 0 -0 -0 -1 -1 -2 -1 -0 0 0 -0 0 0 0 -0 -1 -0 0 0 -1 -2 -0 0 0 0 0 -0 -0 -0 -0 -0 -0 -0 -0 -0 0 -1 -2 -2 nan
nan 0 -0 -1 0 0 -0 -0 -1 -2 -1 0 -1 -1 -1 0 0 0 0 -1 -0 -0 -0 -0 -1 -1 -0 0 -0 0 -0 -0 -0 -0 0 -0 -1 0 0 -0 0 0 -0 -2 nan
nan 0 -1 -1 0 0 -0 -1 -1 -1 -1 0 -0 -1 -2 -1 1 0 0 -1 -0 -1 -1 0 -0 -1 -0 0 0 0 -0 -0 0 -0 -0 -0 0 0 0 -0 -0 -0 0 -0 nan
nan -0 -0 -0 0 -0 -0 -1 -1 -2 -1 -0 -0 -1 -1 -1 -1 -1 -1 -0 -1 -0 0 1 0 -1 -1 0 -0 -0 0 -0 1 0 -0 0 -0 -0 -0 0 0 -0 -0 -0 nan
nan -0 0 0 0 -0 -1 -1 -1 -1 -0 -0 -0 -0 -1 -1 -0 -1 -1 -2 -0 0 1 0 0 0 -1 -2 -0 -0 0 0 -0 -0 -0 0 -1 -0 -0 -0 -0 -1 -0 0 nan
nan -0 0 0 -0 -1 -1 -0 0 -1 -1 -0 -0 -1 -0 -0 -0 -0 -3 -1 0 -0 0 0 -0 -0 -1 -1 -0 1 -0 -0 -0 0 0 -0 -1 -1 0 -0 -0 -0 0 0 nan
nan -0 -0 -0 -0 -0 -0 -1 -1 -1 -1 -1 -1 -1 0 -1 -0 0 -1 -1 0 -0 -0 -0 0 0 -0 -1 -0 -0 -0 0 0 -0 -0 -1 -1 -0 -0 -0 -0 0 0 0 nan
nan -0 -0 -0 -0 -0 -1 -0 -0 -1 -1 -0 0 -0 -1 -1 -0 0 0 -1 -2 0 -0 -0 0 -0 -1 -1 -0 -0 0 0 0 -1 -1 -0 -0 -0 -0 -0 -0 -0 0 0 nan
nan -0 -1 -0 -0 0 -0 -0 -1 -1 -0 -0 -1 -1 -0 -0 -0 0 0 -0 -2 0 0 -0 -0 -0 -0 -1 -0 1 -0 -0 -0 -0 0 0 -0 -0 -1 -0 -0 -0 0 0 nan
nan nan nan nan nan nan nan nan nan nan nan nan nan nan nan nan nan nan nan nan nan nan nan nan nan nan nan nan nan nan nan nan nan nan nan nan nan nan nan nan nan nan nan nan nan
Wind_Speed
21 22 22 23 24 25 25 25 26 25 24 25 26 27 26 29 26 26 25 14 9 8 9 4 4 2 5 14 16 20 3 7 11 9 5 3 2 16 19 12 2 12 3 10 11
19 19 20 20 21 22 22 23 23 24 24 25 27 27 25 27 28 24 6 7 14 13 11 8 8 11 14 17 22 5 3 10 11 3 4 11 12 8 9 11 2 11 6 2 9
21 21 20 21 20 21 22 21 22 22 23 24 25 27 24 24 22 4 6 3 9 10 10 11 12 13 18 21 27 18 7 13 14 15 7 6 9 17 11 9 10 13 9 10 6
22 23 22 20 21 21 20 22 21 21 23 22 23 24 23 19 6 2 11 7 8 9 11 12 8 14 7 8 28 5 20 13 14 23 4 3 2 7 21 5 13 10 7 4 5
22 23 24 24 22 22 21 21 20 19 21 20 21 21 22 10 25 18 10 12 12 12 13 11 15 18 8 9 15 8 7 11 10 11 16 15 4 4 5 1 12 9 10 5 4
22 22 24 25 25 24 23 22 21 18 19 20 19 20 17 13 9 3 10 16 17 16 15 12 14 19 20 10 8 19 20 16 11 13 8 4 3 1 2 6 9 7 7 5 4
22 23 22 24 26 26 24 24 21 17 19 19 18 18 21 36 17 13 15 13 17 17 15 13 16 21 17 8 14 20 9 10 9 8 3 4 0 2 3 8 8 11 7 5 6
18 20 22 23 26 27 25 25 23 18 18 20 19 15 16 25 18 21 24 18 15 18 19 17 18 13 7 14 17 9 7 5 5 6 7 6 8 4 13 13 6 8 12 10 8
18 19 19 23 25 27 27 25 22 18 21 20 20 10 15 7 15 10 23 18 19 18 24 22 18 10 11 5 5 5 8 6 8 9 5 4 4 7 13 16 14 19 17 13 11
18 19 19 21 23 26 29 24 18 18 20 14 11 8 18 8 11 15 10 18 19 16 19 18 10 4 4 3 6 7 6 5 5 4 6 12 5 7 16 16 21 17 15 15 15
18 19 20 20 22 25 28 16 4 3 3 13 10 14 18 15 14 11 10 18 18 20 12 18 5 11 13 14 15 14 16 7 9 7 10 10 7 12 19 18 21 21 24 21 21
17 18 19 21 22 22 17 9 1 18 16 19 30 36 37 31 19 20 13 18 16 14 7 9 20 14 17 18 16 17 9 6 7 8 12 7 8 10 10 23 33 30 27 26 27
19 18 19 19 20 13 9 19 20 19 8 19 33 34 44 33 37 39 24 25 10 13 15 17 16 19 20 18 14 7 5 6 9 8 6 1 6 4 7 25 24 29 32 31 31
20 17 17 17 13 12 6 11 12 6 5 8 10 14 29 21 12 34 36 25 12 18 18 14 22 21 18 21 8 3 9 11 6 3 4 2 5 4 5 14 19 25 29 34 33
19 17 15 13 14 17 14 13 2 4 4 7 8 7 6 23 10 19 34 29 15 17 11 17 8 16 20 11 6 7 8 3 3 6 4 4 0 7 7 9 16 21 32 35 37
19 17 14 15 13 11 16 18 3 2 10 6 8 7 6 20 11 5 19 34 8 16 16 15 23 18 18 9 9 6 4 5 2 2 5 8 3 7 5 15 17 23 34 38 40
18 17 17 14 15 4 15 11 4 7 5 8 5 8 7 8 16 9 8 12 14 10 17 18 23 19 16 11 6 5 4 2 4 2 5 9 6 10 8 8 8 24 32 40 44
18 16 20 20 15 6 11 2 8 13 25 7 8 6 12 7 11 16 11 9 17 12 5 14 16 20 11 15 8 7 10 5 6 3 3 13 5 6 5 9 17 16 35 40 39
16 19 24 22 14 10 4 8 11 17 9 16 30 19 20 13 9 15 16 16 15 21 13 11 14 7 21 5 10 4 5 9 6 1 2 5 7 1 4 5 5 8 12 33 41
22 24 29 21 16 15 7 17 16 24 18 26 14 11 17 9 8 9 9 12 15 22 17 4 6 15 17 9 8 10 3 2 1 7 6 4 5 3 3 4 4 5 13 15 22
24 14 11 25 23 20 17 11 17 30 22 15 17 21 22 19 13 13 8 10 16 16 18 18 11 10 8 11 13 4 8 4 9 4 5 3 5 5 7 4 2 2 14 14 10
23 5 13 27 18 12 19 11 12 16 17 17 15 23 20 19 18 16 20 18 12 6 20 10 4 10 18 22 14 16 12 10 5 5 4 5 5 5 8 10 11 12 14 16 16
13 12 24 39 14 16 12 19 26 21 20 10 12 12 20 20 12 12 19 13 1 3 4 5 2 7 14 12 11 21 9 13 8 5 6 6 6 6 8 8 11 5 8 4 15
9 5 14 33 14 18 17 19 22 22 26 27 24 17 19 20 15 7 18 6 7 4 8 8 5 15 14 12 4 5 8 8 7 5 4 6 5 6 8 6 8 11 11 8 10
21 7 11 9 18 16 18 10 22 22 24 14 17 21 20 14 13 8 6 11 8 8 3 2 5 8 11 20 18 19 12 14 11 7 10 10 15 11 8 7 7 13 8 8 11
16 11 16 9 23 22 23 20 21 17 22 17 25 17 13 17 14 12 5 6 15 3 3 5 3 4 11 14 15 9 19 11 14 11 7 8 10 8 12 12 11 15 16 17 20
33 27 13 16 15 18 22 25 17 17 25 26 20 16 18 23 17 11 4 25 23 8 2 4 4 2 7 10 12 8 15 11 17 13 10 9 8 6 5 3 3 2 9 7 6
Wind_Direction
298 298 298 300 301 302 304 305 307 308 312 312 313 315 320 319 316 310 300 272 267 263 292 258 286 307 290 264 269 270 311 277 275 308 313 247 350 1 92 113 152 178 320 30 292
295 298 300 303 305 307 307 306 307 310 309 310 312 313 320 320 320 318 301 252 260 272 267 228 243 268 242 260 259 231 204 251 259 264 17 12 25 349 78 102 320 249 242 19 236
290 291 294 299 299 303 306 309 311 311 308 309 311 313 320 320 322 312 4 312 250 258 242 226 275 288 288 285 273 263 227 264 290 317 38 26 349 52 47 49 358 320 359 153 191
290 289 290 291 295 298 301 305 311 315 311 312 314 314 318 315 283 145 323 303 269 255 233 225 266 272 270 271 276 288 260 269 314 307 23 344 37 72 99 159 52 24 28 137 129
297 292 290 290 290 292 296 300 305 313 313 315 315 316 320 288 263 281 288 287 261 250 241 233 259 261 246 257 290 314 294 314 338 17 18 8 53 148 135 84 78 26 25 70 118
298 299 296 291 289 288 290 294 299 306 307 311 312 311 311 268 305 274 242 277 263 244 245 228 255 255 268 299 305 291 306 301 324 329 7 308 65 176 51 52 74 54 60 100 163
293 296 301 298 291 289 286 288 292 299 299 302 305 304 290 267 272 231 226 244 270 242 244 225 242 264 289 321 306 323 317 310 274 306 318 322 266 211 273 184 115 128 129 114 152
309 302 300 301 301 291 287 283 287 295 291 293 293 289 265 296 290 241 214 231 238 243 233 256 260 296 278 296 302 299 302 282 278 285 274 151 259 188 173 153 165 147 128 132 146
317 318 315 308 306 302 291 280 282 291 285 287 287 264 263 302 275 293 222 230 242 235 245 250 265 270 287 276 303 262 255 254 328 260 223 131 246 239 207 142 141 150 150 150 144
314 320 316 320 315 315 305 289 288 279 278 280 257 267 259 265 302 314 254 208 223 233 243 245 250 232 271 204 238 245 229 167 234 278 182 256 236 222 234 144 133 147 146 130 129
307 313 318 316 318 321 325 339 351 329 298 223 233 222 268 271 295 271 241 204 216 245 217 232 216 228 229 227 236 260 277 233 244 233 209 227 188 206 229 143 142 157 147 149 152
298 303 309 317 324 327 332 303 104 322 293 262 258 261 261 266 275 255 239 200 199 230 217 225 231 223 238 246 248 259 272 303 307 196 212 251 273 193 182 160 165 163 157 156 154
290 297 305 313 326 353 338 323 312 316 280 272 245 249 243 245 240 246 242 243 194 211 234 214 239 214 238 248 253 254 273 288 267 289 336 45 319 154 176 163 175 166 165 165 161
281 287 296 308 321 322 314 300 280 286 288 268 224 248 226 229 255 231 227 234 216 205 228 243 240 245 236 238 230 257 256 260 305 12 259 121 276 275 179 159 168 172 171 173 174
270 275 285 294 295 295 301 298 303 169 292 253 204 166 206 185 148 216 219 224 233 209 189 229 234 230 241 244 206 226 268 304 348 317 343 287 21 272 257 183 181 179 186 182 184
269 260 269 273 278 332 336 314 208 205 241 268 167 175 149 198 222 321 176 211 235 213 236 247 238 244 243 231 214 208 290 307 302 255 303 274 172 277 218 189 197 185 189 186 188
265 254 247 257 252 231 296 323 218 217 248 248 228 164 210 197 220 226 218 189 205 191 221 242 255 259 241 224 214 169 163 323 346 10 234 350 322 233 225 224 209 182 184 189 191
259 255 239 245 247 242 310 247 256 237 233 270 291 250 196 201 217 214 236 219 211 232 180 222 250 247 230 211 189 215 188 160 200 178 338 14 280 291 227 216 141 173 189 189 186
251 248 245 232 233 201 229 219 220 234 265 244 277 291 278 201 213 200 218 235 217 206 206 194 234 261 235 207 150 232 188 198 133 116 109 232 279 11 64 331 123 155 183 184 191
247 251 245 225 204 192 217 230 225 234 260 278 294 312 312 333 220 189 195 221 233 206 216 225 229 239 248 192 200 187 184 119 312 161 208 238 253 205 48 280 291 89 110 121 172
244 246 234 213 195 205 218 225 233 250 266 268 274 276 288 309 326 314 301 251 204 215 206 215 235 270 287 215 186 179 211 157 240 204 180 205 271 222 186 180 79 261 151 156 168
230 225 173 189 203 218 231 223 260 262 246 254 263 275 278 293 304 288 230 251 221 179 203 189 167 227 256 274 234 195 196 191 152 248 189 144 262 171 172 250 192 243 173 174 188
220 210 173 192 213 221 234 236 243 255 253 251 253 256 263 276 297 305 292 218 135 94 169 154 140 276 274 283 267 197 184 199 192 161 194 139 252 235 231 221 205 153 202 209 179
201 191 191 206 213 219 224 235 242 233 245 258 265 280 268 281 281 277 315 292 181 114 69 115 179 227 233 242 211 277 207 217 194 177 225 196 220 272 258 239 226 198 175 226 245
205 215 190 201 210 218 219 228 227 243 231 225 257 247 262 269 288 272 238 319 308 105 46 133 220 245 253 216 243 237 209 222 228 208 208 249 271 253 239 244 194 177 212 186 213
205 197 195 214 199 215 219 221 232 253 228 235 238 243 255 252 242 280 329 339 272 140 123 6 273 308 247 262 243 219 278 226 225 235 241 206 229 220 238 248 198 210 206 209 221
217 218 218 206 193 206 215 223 231 239 260 239 241 245 236 250 272 203 268 306 239 244 151 91 332 209 237 245 278 285 215 230 260 239 201 227 233 244 229 203 209 171 162 139 165
Height
1541 1539 1538 1536 1536 1534 1533 1531 1529 1527 1525 1522 1520 1518 1515 1511 1506 1502 1500 1499 1499 1500 1501 1501 1501 1502 1503 1500 1499 1497 1508 1509 1499 1491 1487 1478 1478 1477 1476 1475 1483 1483 1484 1487 1497
1537 1536 1535 1533 1532 1530 1529 1527 1525 1524 1522 1519 1517 1515 1513 1508 1504 1497 1495 1495 1497 1498 1499 1501 1500 1500 1501 1497 1496 1498 1506 1498 1485 1481 1480 1477 1477 1476 1477 1483 1485 1485 1483 1476 1483
1533 1532 1531 1530 1528 1527 1526 1524 1522 1520 1518 1516 1514 1512 1511 1508 1503 1495 1494 1494 1495 1496 1497 1499 1499 1499 1497 1494 1491 1490 1496 1483 1481 1478 1476 1476 1477 1480 1477 1482 1484 1485 1481 1480 1479
1528 1528 1527 1525 1525 1523 1522 1521 1519 1517 1515 1512 1510 1508 1507 1507 1505 1494 1494 1495 1495 1495 1496 1497 1497 1497 1496 1494 1486 1491 1482 1479 1477 1476 1474 1475 1476 1481 1478 1486 1481 1479 1481 1481 1478
1525 1523 1523 1522 1521 1519 1519 1517 1516 1515 1512 1510 1508 1506 1503 1502 1492 1492 1491 1493 1492 1493 1493 1495 1495 1494 1494 1488 1486 1483 1479 1475 1476 1476 1475 1477 1481 1478 1481 1480 1481 1475 1479 1479 1479
1521 1520 1518 1518 1517 1515 1514 1513 1513 1512 1509 1508 1506 1504 1503 1497 1486 1487 1488 1490 1489 1490 1491 1492 1491 1489 1489 1486 1486 1481 1477 1474 1473 1474 1472 1477 1476 1477 1478 1480 1480 1479 1482 1481 1481
1519 1517 1515 1513 1512 1510 1510 1509 1508 1508 1507 1504 1503 1500 1498 1481 1484 1485 1485 1485 1487 1487 1487 1488 1488 1489 1487 1484 1482 1481 1482 1475 1471 1470 1472 1475 1480 1481 1480 1475 1478 1484 1484 1483 1482
1516 1514 1512 1510 1508 1506 1504 1504 1503 1504 1503 1501 1499 1497 1488 1477 1477 1476 1479 1479 1483 1484 1486 1485 1487 1486 1484 1483 1482 1483 1482 1487 1471 1469 1468 1473 1480 1474 1480 1476 1480 1483 1483 1484 1485
1514 1511 1509 1507 1505 1501 1499 1497 1498 1499 1498 1497 1496 1494 1482 1474 1471 1470 1472 1473 1479 1481 1483 1485 1485 1484 1484 1486 1491 1483 1495 1485 1476 1468 1468 1472 1476 1468 1468 1467 1479 1483 1484 1486 1486
1511 1508 1506 1505 1503 1500 1495 1493 1493 1493 1492 1493 1492 1497 1475 1469 1469 1469 1470 1471 1475 1479 1481 1482 1483 1484 1485 1490 1500 1488 1482 1475 1473 1466 1468 1467 1470 1466 1462 1465 1476 1481 1481 1481 1483
1507 1506 1505 1504 1501 1498 1494 1492 1493 1490 1488 1485 1480 1474 1468 1466 1466 1466 1468 1470 1471 1476 1477 1479 1486 1486 1481 1476 1470 1472 1472 1475 1466 1460 1464 1462 1465 1466 1460 1466 1474 1480 1479 1482 1482
1505 1506 1504 1502 1500 1496 1495 1494 1494 1503 1484 1477 1475 1470 1467 1464 1465 1460 1466 1469 1466 1469 1473 1479 1475 1470 1469 1467 1466 1465 1468 1468 1458 1454 1458 1458 1457 1451 1457 1459 1464 1471 1476 1480 1482
1503 1503 1502 1500 1498 1495 1494 1495 1493 1492 1486 1465 1461 1451 1452 1454 1453 1451 1460 1461 1460 1462 1470 1470 1457 1462 1463 1462 1462 1460 1464 1465 1465 1453 1451 1453 1462 1455 1451 1459 1465 1465 1468 1474 1475
1500 1500 1500 1499 1500 1494 1494 1493 1494 1493 1492 1453 1443 1431 1438 1444 1442 1442 1447 1457 1456 1454 1464 1462 1455 1457 1456 1458 1455 1464 1454 1455 1457 1461 1479 1455 1484 1456 1451 1455 1459 1463 1465 1467 1472
1496 1497 1497 1498 1496 1495 1495 1491 1492 1493 1504 1435 1427 1426 1424 1435 1432 1431 1434 1448 1450 1447 1455 1452 1451 1451 1451 1450 1446 1455 1450 1453 1453 1464 1466 1463 1473 1459 1441 1453 1452 1454 1457 1459 1461
1491 1493 1495 1496 1494 1495 1492 1492 1493 1498 1481 1433 1420 1422 1423 1430 1429 1427 1430 1441 1443 1444 1445 1445 1443 1443 1441 1439 1441 1443 1450 1453 1454 1464 1484 1463 1466 1466 1453 1440 1440 1443 1448 1451 1455
1486 1488 1491 1492 1492 1494 1492 1494 1494 1486 1443 1428 1421 1419 1424 1426 1427 1427 1431 1436 1443 1449 1448 1443 1439 1436 1435 1440 1438 1442 1456 1485 1493 1492 1493 1466 1466 1452 1432 1430 1429 1433 1440 1444 1447
1482 1484 1485 1487 1490 1492 1492 1496 1482 1450 1444 1415 1420 1421 1423 1421 1422 1424 1428 1433 1431 1434 1442 1451 1453 1435 1427 1429 1440 1445 1452 1484 1491 1504 1491 1470 1471 1448 1426 1424 1427 1430 1432 1438 1445
1478 1480 1478 1481 1487 1490 1495 1491 1470 1448 1440 1439 1425 1434 1425 1415 1418 1422 1424 1425 1421 1424 1438 1441 1440 1422 1423 1423 1427 1440 1451 1445 1469 1474 1485 1475 1453 1437 1428 1429 1425 1426 1428 1433 1438
1472 1472 1469 1477 1483 1488 1490 1469 1453 1445 1448 1442 1449 1444 1436 1424 1418 1420 1421 1410 1416 1413 1420 1425 1438 1419 1418 1419 1421 1429 1434 1456 1460 1485 1494 1460 1461 1452 1440 1434 1428 1427 1427 1429 1434
1467 1465 1459 1472 1480 1480 1463 1452 1448 1453 1455 1454 1449 1445 1441 1442 1442 1428 1419 1408 1405 1407 1411 1420 1430 1425 1419 1414 1422 1430 1438 1438 1445 1459 1478 1483 1467 1434 1434 1429 1427 1425 1425 1427 1429
1458 1455 1455 1463 1468 1456 1446 1452 1450 1450 1451 1451 1448 1447 1439 1436 1438 1438 1424 1410 1398 1400 1408 1411 1421 1435 1426 1411 1409 1412 1424 1432 1461 1456 1454 1465 1466 1429 1429 1426 1423 1424 1423 1425 1426
1446 1448 1449 1454 1444 1443 1447 1445 1448 1451 1447 1446 1443 1438 1436 1437 1440 1431 1418 1397 1402 1402 1404 1409 1422 1440 1429 1417 1404 1406 1414 1418 1427 1439 1452 1475 1461 1422 1423 1425 1422 1420 1422 1423 1424
1438 1439 1441 1439 1434 1438 1443 1438 1441 1442 1442 1443 1436 1440 1435 1433 1432 1428 1430 1406 1399 1402 1405 1407 1415 1424 1429 1421 1410 1412 1408 1412 1422 1448 1446 1448 1436 1425 1422 1419 1416 1416 1417 1419 1422
1424 1419 1419 1420 1422 1431 1433 1430 1434 1435 1436 1437 1431 1435 1435 1432 1428 1429 1430 1424 1403 1402 1403 1406 1415 1415 1409 1406 1409 1409 1407 1409 1415 1420 1429 1430 1429 1421 1416 1413 1412 1413 1414 1416 1418
1407 1408 1413 1413 1418 1424 1424 1421 1428 1426 1429 1426 1425 1427 1427 1427 1427 1423 1427 1433 1429 1402 1404 1406 1411 1411 1412 1405 1401 1405 1407 1404 1404 1407 1411 1416 1420 1408 1405 1406 1407 1409 1409 1413 1415
1394 1400 1405 1402 1407 1412 1408 1418 1421 1424 1420 1417 1417 1418 1421 1419 1424 1419 1423 1424 1418 1407 1406 1408 1417 1410 1418 1408 1410 1419 1403 1401 1405 1401 1403 1416 1408 1401 1403 1402 1403 1405 1406 1409 1410